Portada
METAR-TAF:

METAR-TAF

Aeroports :

Tòquio Heliport, Japó

latitud: 35-38N, longitud: 139-51E, altitud: 5 m

Observació

L'informe es va fer fa 19 minuts, a les 07:00 UTC
Vent 3 kt del Sud-Est
Temperatura 14°C
Humitat 72%
Pressió 1020 hPa
Visibilitat 10 km o més
Escasses núvols a una alçada de 2000 ft
Cel ennuvolat a una alçada de 4000 ft
Cel ennuvolat a una alçada de 5000 ft

METAR: RJTI 050700Z 13003KT 9999 FEW020 BKN040 BKN050 14/09 Q1020

Hora: 16:19 (07:19 UTC)


TAF: manca

Observacions i pronòstics meteorològics de més de 4000 aeroports (METAR i TAF).

Les estacions disponibles són els punts grocs i vermells al mapa.

Posi el ratolí al punt desitjat per veure el nom de l'estació.

Feu clic per veure les observacions i els pronòstics meteorològics.

Per canviar el mapa: feu clic els botons verds amb una creu de color negre per apropar; al botó verd amb un guió per allunyar la imatge; o en les fletxes verdes per a mapes adjacents.


METAR-TAF: